Location: Bellerive
(46.9237°N, 7.0223°E)
Time: 09:22:34
(UTC+00:00)

ATLAS CENTAUR R/B - Pass Details

Date: 09 April 2020
Orbit: 466 x 681 km, 64.7° (Epoch: 20 May)

Event Time Altitude Azimuth Distance (km) Brightness Sun altitude
Rises 20:16:01 0° 329° (NNW) 2,689 6.1 -19.8°
Reaches altitude 10° 20:18:34 10° 343° (NNW) 1,756 4.7 -20.2°
Maximum altitude 20:21:49 25° 39° (NE) 1,054 2.7 -20.6°
Enters shadow 20:22:08 24° 47° (NE) 1,058 2.6 -20.7°
